Location: Doverdale
(52.2833°N, 2.2000°W)
Time: 01:48:47
(UTC+00:00)

ATLAS 5 CENTAUR R/B - Pass Details

Date: 29 October 2020
Orbit: 531 x 1127 km, 63.4° (Epoch: 22 November)

Event Time Altitude Azimuth Distance (km) Brightness Sun altitude
Rises 18:07:25 0° 281° (W) 2,864 6.6 -13.1°
Reaches altitude 10° 18:09:55 10° 296° (WNW) 2,037 5.2 -13.5°
Maximum altitude 18:13:43 25° 351° (N) 1,417 3.4 -14.1°
Enters shadow 18:17:30 12° 43° (NE) 2,164 3.9 -14.7°
